Location: Austin
(30.3000°N, 97.7500°W)
Time: 11:29:50
(UTC-05:00)

OAO 3 Rocket - Pass Details

Date: 26 May 2023
Orbit: 626 x 677 km, 35.0° (Epoch: 31 May)

Event Time Altitude Azimuth Distance (km) Brightness Sun altitude
Rises 22:20:47 0° 266° (W) 2,934 7.2 -21.6°
Reaches altitude 10° 22:23:12 10° 270° (W) 2,018 6.3 -22.0°
Maximum altitude 22:27:48 56° 349° (N) 751 3.7 -22.7°
Enters shadow 22:29:59 29° 55° (NE) 1,161 4.3 -23.0°
